Espace membre
Imprimable
Waimes, 25/05/2017, BEL - Les Cimes de Waimes
Liste des rapports > 65km - Classement
Recherche: Page: [1]
194 Entrées
 
Les réclamations ne sont plus acceptées, les résultats sont considérés comme définitifs.
RangNrLicenceNomAgeIOCEquipeTempsTkmMoy.ScrLocalité
Vos photos grâce à Sportograf1.142910048431777VANDAEL Rony49BELBIKE TEAM B612:47:092:35 23.339OVERPELT
Vos photos grâce à Sportograf2.139610053536203PEETERS Johan43BELKLEIN-BRABANT MTB RACING 2:53:062:40 22.5318BORNEM
Vos photos grâce à Sportograf3.2094BALLMANN Dany47BELDECORAMA2:53:102:40 22.5219MALMEDY
Vos photos grâce à Sportograf4.13801969031968236TOLLENAERE Wim48BELTEAM DE FIETSER OPWIJK2:54:142:41 22.3821OPWIJK
Vos photos grâce à Sportograf5.1848KLUTH Marcus43DEUKLEVER-FAHRRADPROFI2:54:222:41 22.3722BOCHOLT
Vos photos grâce à Sportograf6.142410051010058BRUNO Vasco41BELDW BIKES2:54:462:42 22.3223NEERPELT
Vos photos grâce à Sportograf7.134657084M76MAHAUX Olivier41BELTRIATHLON ARDENNES3:01:002:48 21.5533TROIS-PONTS
Vos photos grâce à Sportograf8.1307BEL19721228WILLEMS Jan45BELDE MODDERFOKKERS3:01:172:48 21.5135SCHELLEBELLE
Vos photos grâce à Sportograf9.158910053280969VONNECHE Didier44BELECW3:02:572:49 21.3240
Vos photos grâce à Sportograf10.147696086173VAN RIJN Niels40NLDMBC MIDDEN NL3:04:262:51 21.1542MAARTENSDIJK
Vos photos grâce à Sportograf11.156810055292913VAN LANGENHOVE Danny40BELMTB GENT RACING TEAM3:04:302:51 21.1443GENTBRUGGE
Vos photos grâce à Sportograf12.1576410324JACQUEMIN Olivier43BELPEPINSTER PRIMEUR3:05:082:51 21.0745VERVIERS
Vos photos grâce à Sportograf13.139210055722945DILLEN Wim40BELRS-BIKES RACING TEAM PULD3:05:092:51 21.0746MORTSEL
Vos photos grâce à Sportograf14.1523BEL19760403PEERS Wim41BELBIKE INN HERENTALS3:05:482:52 20.9952BEVEM
Vos photos grâce à Sportograf15.156110014769343JUNKER Steve46LUXVU ESCH3:05:592:52 20.9753L-8460 EISCHEN
Vos photos grâce à Sportograf16.1511430768STAINIER Renaud41BEL3:06:102:52 20.9554SOUMAGNE
Vos photos grâce à Sportograf17.312VANLOMMEL Marc46BEL3:06:412:53 20.8956TIELEN
Vos photos grâce à Sportograf18.404VONK Mark46NLDTAARTEWTEAM3:06:582:53 20.8658
Vos photos grâce à Sportograf19.405DE POORTER Boudewijn48NLDTAARTEBTEAM3:06:582:53 20.8659
Vos photos grâce à Sportograf20.403NUYENS 40NLDFANATXC3:07:412:54 20.7865
Vos photos grâce à Sportograf21.491HARDY Henri-Pierre44BEL3:12:362:58 20.2584CRISNÉE
Vos photos grâce à Sportograf22.344PETIT Axel45BEL3:12:402:58 20.2485
Vos photos grâce à Sportograf23.1625DELONGUEVILLE Raphael42BELPITAU TEAM3:13:002:59 20.2186
Vos photos grâce à Sportograf24.1554KNWU287DOZEMAN Henk-Jan41NLD3:14:193:00 20.0790WAGENINGEN
Vos photos grâce à Sportograf25.129210022894913GOUWELEEUW Arno41NLDMTB-ARNHEM / BAR-END3:14:403:00 20.0492ARNHEM
Vos photos grâce à Sportograf26.1728KLERKX Jeroen45NLDMTB-ARNHEM3:14:403:00 20.0493BASSERSDORF
Vos photos grâce à Sportograf27.133865199DANNY Derveaux47BELBEL197001123:15:153:01 19.9896OTEGEM
Vos photos grâce à Sportograf28.142610052748378VANKEIRSBILCK Kurt49BELPEDALHARDER3:17:043:02 19.79101ROESELARE
Vos photos grâce à Sportograf29.144610051010260BOLLEN Jan46BELBIKE TEAM B613:19:303:05 19.55110PEER
Vos photos grâce à Sportograf30.314SYC Nikolaus45DEUFOCUS RAPIRO RACING3:20:243:05 19.46114ISERLOHN
Vos photos grâce à Sportograf31.1509430760VANLANGENAKKER Stéphane40BELCYCLO TEAM MAGNE3:21:053:06 19.40117SAIVE
Vos photos grâce à Sportograf32.2391VINCK Tom41BELGOODFELLAS MTB3:22:573:08 19.22122LEBBEKE
Vos photos grâce à Sportograf33.132174684VAN DE WEYER Rocco44BELTEAM-GREEN3:23:063:08 19.20125WIEKEVORST
Vos photos grâce à Sportograf34.2410SCHAEFER Joerg45DEUKLEVER FAHRRADPROFI3:23:063:08 19.20126KLEVE
Vos photos grâce à Sportograf35.1560DE KOKER Dirk45BELFUN CT3:23:193:08 19.18127VLIERZELE
Vos photos grâce à Sportograf36.1382BEL19721122CARDINAELS Philippe45BELBIKE TEAM B613:25:263:10 18.98134HAMONT
Vos photos grâce à Sportograf37.1747GEERT Jeurissen40BEL3:26:113:11 18.92136TONGEREN
Vos photos grâce à Sportograf38.2185ROOSEN Tom41BELMTB HAMONT3:26:313:11 18.89140HAMONT-ACHEL
Vos photos grâce à Sportograf39.488DANEELS Werner48BEL3:27:003:12 18.84144GIERLE
Vos photos grâce à Sportograf40.379HOFMANS Erick42BEL3:27:093:12 18.83145
Vos photos grâce à Sportograf41.361BERNARD Alexandre42BEL3:27:273:12 18.80146BLANMONT
Vos photos grâce à Sportograf42.372LESCRENIER Pascal40BELC213:28:073:13 18.74150
Vos photos grâce à Sportograf43.349HEYLEN Bert41BELBIKETEAM B613:28:183:13 18.72151
Vos photos grâce à Sportograf44.145810049941644VAN ELSEN Guy46BELBIKE TEAM B613:28:233:13 18.72152HAMONT-ACHEL
Vos photos grâce à Sportograf45.1819STRIJKER Willem45NLDTEAM GIA3:28:343:13 18.70153EERBEEK
Vos photos grâce à Sportograf46.1811VAN LAAR Rinie47NLD3:28:343:13 18.70154EERBEEK
Vos photos grâce à Sportograf47.15971970071176375HEIJIX Tino47BEL3:29:023:13 18.66156
Vos photos grâce à Sportograf48.2440GUILLAUME Fabrice43BEL3:30:053:14 18.57162BASTOGNE
Vos photos grâce à Sportograf49.2451WAGENAAR Richard40NLD3:30:083:14 18.56163VLISSINGEN
Vos photos grâce à Sportograf50.1946BROECKX Michel41BELPOWERBIKERS3:30:583:15 18.49166MERKSPLAS
Vos photos grâce à Sportograf51.1941CUYPERS Geert44BEL4UMBIKERS3:31:493:16 18.41173HOESELT
Vos photos grâce à Sportograf52.1716LEYENS Christian45BEL3:31:583:16 18.40174ROBERTVILLE
Vos photos grâce à Sportograf53.42692030632BRAUNE Jean-Yves46BELCYCLO ROTHEUX NEUPRE3:34:413:19 18.17185
Vos photos grâce à Sportograf54.2246OBBEMA Maurits41NLD3:37:363:21 17.92197HETEREN
Vos photos grâce à Sportograf55.1923WEHLER Sebastian48DEU3:37:453:21 17.91201HÜNSTETTEN
Vos photos grâce à Sportograf56.1922VAN DYCK Raf40BEL3:40:363:24 17.68210HOOGSTRATEN
Vos photos grâce à Sportograf57.2335UCCELLO Pascal47BELBIKERS LIÉGEOIS3:42:053:25 17.56215RETINNE
Vos photos grâce à Sportograf58.2064WIM Wouters45BELGIERKE3:42:233:26 17.54217HERENTALS
Vos photos grâce à Sportograf59.1916BOUDIN FRANCOIS Frederic45FRA3:42:243:26 17.54218ARRAS
Vos photos grâce à Sportograf60.2325MAES Patric47BELECOLE VTT PATRIC MAES3:42:273:26 17.53219NEUPRÉ
Vos photos grâce à Sportograf61.309VANDENWIJNGARDEN Kris47BEL3:43:073:26 17.48221
Vos photos grâce à Sportograf62.397DE ROOS Jan47NLDRTC HOOFDDORP3:44:173:28 17.39225HOOFDDORP
Vos photos grâce à Sportograf63.453GULEN Rob44NLD3:44:263:28 17.38226
Vos photos grâce à Sportograf64.438XHFLEEN Piet49NLD3:44:263:28 17.38227
Vos photos grâce à Sportograf65.2011BAIWIR Sylvain40BEL3:44:583:28 17.34232HARZE
Vos photos grâce à Sportograf66.2013DEWERE Benoit45BEL3:45:143:28 17.32234ERNONHEID
Vos photos grâce à Sportograf67.2007BORGMANS Wim40BEL3:45:543:29 17.27236OUD-TURNHOUT
Vos photos grâce à Sportograf68.1805MAMOU David46FRACANNONDALE RACING3:47:023:30 17.18243BRUXELLES
Vos photos grâce à Sportograf69.348JANSSEN Pascal42BELKMA JUSTFORFUN THEUX3:48:153:31 17.09249
Vos photos grâce à Sportograf70.2266JADOT Laurent47BEL3:48:443:32 17.05252FAYS
Vos photos grâce à Sportograf71.2389THOMASSEN Chris48NLDBIKESUSPENSION3:49:043:32 17.03255BEST
Vos photos grâce à Sportograf72.1722GIET Didier49BEL3:50:433:33 16.90259LOUVEIGNÉ
Vos photos grâce à Sportograf73.1843SCHOONHEDEN Theo49NLD3:54:163:37 16.65268EERBEEK
Vos photos grâce à Sportograf74.1594VAN NISTELRODE Ruud45NLD3:55:323:38 16.56273AE EINDHOVEN
Vos photos grâce à Sportograf75.1890DEKELVER Guy42BEL3:56:503:39 16.47276WILSELE
Vos photos grâce à Sportograf76.2214BRONE Eric48BELVTT AUBEL3:57:073:39 16.45279HERMÉE
Vos photos grâce à Sportograf77.2442HAEP Oliver44BEL3:57:113:39 16.44280SANKT VITH
Vos photos grâce à Sportograf78.1519410443REMI Christophe45BELHIGH FENS MTB3:57:253:40 16.43281GRIVEGNEE
Vos photos grâce à Sportograf79.2397THOMASSEN Gertjan47NLD3:57:403:40 16.41282UTRECHT
Vos photos grâce à Sportograf80.2337PAWELKOWSKI David40BELFAGN'HARD TEAM3:58:073:40 16.38286FRANCORCHAMPS
Vos photos grâce à Sportograf81.2096KOENDERS Frank42NLD3:58:573:41 16.32291WAALRE
Vos photos grâce à Sportograf82.383DEFRAIGNE David41BEL3:59:283:42 16.29292
Vos photos grâce à Sportograf83.428AUGUSTIN David49BELVTT AUBEL3:59:543:42 16.26296
Vos photos grâce à Sportograf84.436SEGERS Joris45BEL4:00:053:42 16.24298
Vos photos grâce à Sportograf85.2022WILDEMEERSCH Bjorn44BELGOEZEPUT CYCLING4:01:193:43 16.16301ST MICHIELS
Vos photos grâce à Sportograf86.2351RENDON Eric49BEL4:01:303:43 16.15302HENSIES
Vos photos grâce à Sportograf87.2227MARRA Antonio45ITA4:01:463:44 16.13304NAAST
Vos photos grâce à Sportograf88.2155SNIJDERS Patrick45NLD4:02:173:44 16.10306KAATSHEUVEL
Vos photos grâce à Sportograf89.2021VERFAILLIE Gaetan47BELFUERZA MTB TEAM4:02:373:44 16.08309ROLLEGEM
Vos photos grâce à Sportograf90.362BUYSSE David42BEL4:03:033:45 16.05310
Vos photos grâce à Sportograf91.2350VAN PUYENBROECK Frederic43BEL4:03:133:45 16.04312QUIÉVRAIN
Vos photos grâce à Sportograf92.2494VANHAUWAERT Bert41BELFUERZA MTB WEVELGEM4:03:183:45 16.03314WEVELGEM
Vos photos grâce à Sportograf93.141410023285741DIJKSTRA Allard45NLDATAMA4:03:273:45 16.02316ARNHEM
Vos photos grâce à Sportograf94.336MUERMANS Wilfried46BEL4:04:003:46 15.98317RIEMST
Vos photos grâce à Sportograf95.2005VANWYNSBERGHE Kristof41BELGOEZEPUT CYCLING TEAM4:04:083:46 15.98319SINT-ANDRIES
Vos photos grâce à Sportograf96.2221TROMP Mathijs49NLD4:04:213:46 15.96320TURNHOUT
Vos photos grâce à Sportograf97.2157MOELANS Werner43BEL4:04:483:46 15.93322OUD TURNHOUT
Vos photos grâce à Sportograf98.2204BERTELS Paul48BEL4:04:533:47 15.93323DESSEL
Vos photos grâce à Sportograf99.2133JAUMOTTE Benjamin43BEL4:06:033:48 15.85328COMINES
Vos photos grâce à Sportograf100.2068GEBOERS Koen47BELTAEM DW BIKES4:06:173:48 15.84329OVERPELT
Vos photos grâce à Sportograf101.2091JUSTEN Marco40BEL4:06:483:48 15.80330BÜLLINGEN
Vos photos grâce à Sportograf102.2470JANYSZEK Marc49BEL4:07:003:48 15.79331
Vos photos grâce à Sportograf103.2196STEEGMANS Stefan45BEL4:07:093:49 15.78332WELLEN
Vos photos grâce à Sportograf104.1960BERTRAND David42BEL4:07:423:49 15.74335BELGIQUE
Vos photos grâce à Sportograf105.1986SCHWANK Jean-Albert47FRA19804:08:133:50 15.71337GANDRANGE
Vos photos grâce à Sportograf106.1621VAN KERCHOVE Johan44BELWMTB4:08:213:50 15.70339SINT NIKLAAS
Vos photos grâce à Sportograf107.2262DESMET Christophe46BEL4:10:183:52 15.58342MOUSCRON
Vos photos grâce à Sportograf108.2466JENCHENNE Rapahel43BEL4:11:443:53 15.49349
Vos photos grâce à Sportograf109.1775BROUWERS Eric47NLDWE ARE BASTA4:11:473:53 15.49350SWALMEN
Vos photos grâce à Sportograf110.2015HOCQUE Michael43BEL4:13:323:55 15.38354ERNONHEID
Vos photos grâce à Sportograf111.128659116535ROBINE Franck49FRAVTT NATURE SALOUEL4:14:293:55 15.33356AMIENS
Vos photos grâce à Sportograf112.128559116517BRETON Frédéric48FRAVTT NATURE SALOUEL4:14:293:55 15.33357REMIENCOURT
Vos photos grâce à Sportograf113.2158JANSEN Bas47NLD4:14:453:56 15.31359NIJMEGEN
Vos photos grâce à Sportograf114.14921770815093632VAN BRABANDT Siegfried40BELWIELERBOND VLAANDEREN4:14:473:56 15.31360MERENDREE
Vos photos grâce à Sportograf115.476BROECKAERT Kristof42BEL4:16:523:58 15.18363KIELDRECHT
Vos photos grâce à Sportograf116.2070VANDEPUT Pascal41BELMTBVRIENDEN4:17:333:58 15.14365NOSSEGEM
Vos photos grâce à Sportograf117.2387LACROIX André45BEL4:18:063:59 15.11367DISON
Vos photos grâce à Sportograf118.401BOSS Sebastian41NLD4:19:364:00 15.02371OUDE TONGE
Vos photos grâce à Sportograf119.1745SERVAIS Vincent46BEL4:19:474:00 15.01372FRANCORCHAMPS
Vos photos grâce à Sportograf120.1570VANHOVE Jan49BEL2MANYBIKERS4:19:554:00 15.01375WETTEREN
Vos photos grâce à Sportograf121.430BOM Omar42NLD4:20:254:01 14.98377
Vos photos grâce à Sportograf122.2018DIJK Bauke41NLD4:22:554:03 14.83383GOUTUM
Vos photos grâce à Sportograf123.2074GEENENS Hendrik42BEL4:23:074:03 14.82385HARELBEKE
Vos photos grâce à Sportograf124.499VANDENBUSSCHE Pascal41BELSLECHTE VRIENDEN4:23:094:03 14.82386
Vos photos grâce à Sportograf125.1968DOR Fabrice49BEL4:24:124:04 14.76389CHARLEROI
Vos photos grâce à Sportograf126.1953MICHELS Alain43BEL4:24:134:04 14.76391LIGNEUVILLE
Vos photos grâce à Sportograf127.47114317014GILTAIX 40BEL4:24:174:04 14.76392
Vos photos grâce à Sportograf128.2231BIJNENS David42BEL4:25:004:05 14.72393OPGLABBEEK
Vos photos grâce à Sportograf129.2421DE PAEPE Tim40BELXANTHE MTBTEAM4:25:054:05 14.71394HEUSDEN
Vos photos grâce à Sportograf130.2113VANDENBORRE Pascal45BEL4:25:134:05 14.71395SART-BERNARD
Vos photos grâce à Sportograf131.1917DE BOLLE Julien40BEL4:25:134:05 14.71396WIERDE
Vos photos grâce à Sportograf132.483VAN DEN BOGAERT Antoine Van40BEL4:25:264:06 14.69397OVERIJSE
Vos photos grâce à Sportograf133.1985BRASSEUR Olivier45BELENGIE AXIMA4:26:364:07 14.63399MESVIN
Vos photos grâce à Sportograf134.1788BLOEM Armand48NLD4:27:034:07 14.60402VOORBURG
Vos photos grâce à Sportograf135.2192DILISSEN Raf47BELDEPOLIM4:27:094:07 14.60403HECHTEL-EKSEL
Vos photos grâce à Sportograf136.2056AERTS Bert43BEL4:28:064:08 14.55405LICHTAART
Vos photos grâce à Sportograf137.2118KEESJAN Rietveld45NLD4:28:174:08 14.54408DORDRECHT
Vos photos grâce à Sportograf138.2184MELCHIOR Claude43LUX4:30:254:10 14.42414BURDEN
Vos photos grâce à Sportograf139.2154DE RUYTER Arjan48NLD4:32:364:12 14.31418OISTERWIJK
Vos photos grâce à Sportograf140.1990WATERINCKX Christophe43BEL4:32:584:12 14.29420EREMBODEGEM
Vos photos grâce à Sportograf141.2181VESTERS Rob48NLDVENTOUX4:33:154:13 14.27421KAATSHEUVEL
Vos photos grâce à Sportograf142.2107DE RUIJTER Edwin46NLDVENTOUX4:33:194:13 14.27422UDENHOUT
Vos photos grâce à Sportograf143.1735CRAMER Daan40NLDBASTA BIKESTORE HUISSEN4:34:104:14 14.23429HUISSEN
Vos photos grâce à Sportograf144.2203PARENT Jean-Jacques44FRABIKERS DE L'ALLEU4:35:264:15 14.16431WATERLOO
Vos photos grâce à Sportograf145.2092KOLKEN Ronald47NLD4:38:184:17 14.01441HOOGWOUD
Vos photos grâce à Sportograf146.1929CHARLIER Vincent44BEL4:39:414:19 13.94444SART-BERNARD
Vos photos grâce à Sportograf147.1919AVENIERE Philippe47BEL4:39:424:19 13.94445GODINNE
Vos photos grâce à Sportograf148.413HENDRIKS Alain43BELSWDE4:40:314:19 13.90447
Vos photos grâce à Sportograf149.2279GINNEBERGE Krist47BEL4:41:184:20 13.86449AALTER
Vos photos grâce à Sportograf150.1857SIMONS Steven41BELSLECHTE VRIENDEN4:42:564:22 13.78453BRASSCHAAT
Vos photos grâce à Sportograf151.1798NOPPE Frederiek40BEL4:43:544:23 13.74455BOSSUIT
Vos photos grâce à Sportograf152.1924BAKKER Dirk45NLD4:45:284:24 13.66461KR AALST GLD
Vos photos grâce à Sportograf153.2247SMULDERS David42BEL4:46:434:25 13.60466OOSTENDE
Vos photos grâce à Sportograf154.1723DELVAEL Kurt41BEL4:47:384:26 13.56470LEEFDAAL
Vos photos grâce à Sportograf155.2000VAN DEN HUL Martin48NLD19694:47:434:26 13.56471BENNEKOM
Vos photos grâce à Sportograf156.334MAGDALENA Bernard41BEL4:49:054:27 13.49476HEUSY
Vos photos grâce à Sportograf157.444VAN DE SANFDE Rolf48NLD4:55:064:33 13.22485
Vos photos grâce à Sportograf158.473DE VOS Vincent44NLDTWC OOST BRABANT4:58:464:36 13.05495CUIJK
Vos photos grâce à Sportograf159.13091740716217338BRAEKEVELD Xavier43BELKRIERECROSSERS OTEGEM4:59:514:37 13.01497DEERLIJK
Vos photos grâce à Sportograf160.1766MINJAUW Christ46BEL4:59:514:37 13.01498KUURNE
Vos photos grâce à Sportograf161.13221750704195487BEKAERT Peter42BELKRIERECROSSERS4:59:534:37 13.01499HARELBEKE
Vos photos grâce à Sportograf162.1951STORMS Paul41BELBRUULBIKERS5:15:144:51 12.37520HALLE
Vos photos grâce à Sportograf163.322MENSINK Bert45NLD5:20:174:56 12.18525
Vos photos grâce à Sportograf164.1332DEJAEGHERE Bernard44BEL5:21:304:57 12.135264651
Vos photos grâce à Sportograf165.306HECK Johan40BEL5:21:364:57 12.13527BATTICE
Vos photos grâce à Sportograf166.2252FRERE Pascal48BEL5:26:375:02 11.94530FLEURUS
Vos photos grâce à Sportograf167.2212PHILIPSEN Erik47NLD5:28:485:04 11.86535BROEKHUIZENVORST
Vos photos grâce à Sportograf168.2052DUSART Patrick48BEL5:31:325:07 11.76537GRIVEGNEE
Vos photos grâce à Sportograf169.1942JOSSA Jimmy40BEL5:35:485:10 11.61542HOLSBEEK
Vos photos grâce à Sportograf170.1352430817VERSTRAELEN Laurent40BELCOMITÉ RÉGIONAL LIÈGEOIS5:38:595:13 11.51544FERRIÈRES
Vos photos grâce à Sportograf171.1774TROMME Patrick40BELBMB5:39:015:13 11.50545FERRIÈRES
Vos photos grâce à Sportograf172.2211MICHIELS Koen48BEL5:39:185:14 11.49546GEEL
Vos photos grâce à Sportograf173.1840VANDERVEKEN Steve48BELMTB WITTENBERG5:47:055:21 11.24548HERENTALS
Vos photos grâce à Sportograf174.1794COOLS Tim46BEL5:47:395:21 11.22550HERENTALS
Vos photos grâce à Sportograf175.2084OLDENGARM Ronald41NLD5:52:125:26 11.07551ARNHEM
Vos photos grâce à Sportograf176.2086GROOT Ronald44NLD6:04:395:37 10.70553WINKEL
Vos photos grâce à Sportograf177.2166VILFROY Philippe47BELBIKER FOR LIFE6:21:195:52 10.23554WANDRE
Vos photos grâce à Sportograf178.2318FRERE Andre46BEL7:17:336:44 8.91559NALINNES
Vos photos grâce à SportografDSQ33VAN YPEREN Pico49BEL3:38:57
Vos photos grâce à SportografDSQ2413DE JONGH Yves43BEL3:39:11HOBOKEN
Vos photos grâce à SportografDSQ32JANSSEN Rob44NLD3:39:15
Vos photos grâce à SportografDNF35BAKKER Gosse44NLDBREDA
Vos photos grâce à SportografDNF2164BUYS Kurt44BELAALST
Vos photos grâce à SportografDNF1443BEL19701205CAILLIAU Geert47BELSQUADRA VERDE DEVELOPMENTBALEN
Vos photos grâce à SportografDNF2112DELIËN Jasper42NLDTILBURG
Vos photos grâce à SportografDNF1895HACKIN Stéphane43BELANS
Vos photos grâce à SportografDNF1725HANSOULLE Olivier40BELSPA VTTSART-LEZ-SPA
Vos photos grâce à SportografDNF2069MICHIELS Danny49BELTEAM ARDENNESBIKESPA
Vos photos grâce à SportografDNF2216NEYENHUIS Theo41NLDHUISSEN
Vos photos grâce à SportografDNF1993SCHMIDT Andreas45DEUIBC DIMB RACING TEAMMETTMANN
Vos photos grâce à SportografDNF2205STEVENS Robby43BELWMTBSTEKENE
Vos photos grâce à SportografDNF36TIELEMANS Rik47NLDBREDA
Vos photos grâce à SportografDNF2243VAN OOSTERBOS Niels44NLDROOSENDAAL
Vos photos grâce à SportografDNF157210016248187VERBEURGT Peter44BELVLAAMS BRABANTLEUVEN
DNF: abandon; DSQ: disqualifié; Vitesse en km/h
Page: [1]